RH
90 92 90 89 85 93 99 96 99 98 98 96 93 92 88 79 77 75 93 96 99 96 82 82 84 89 88
92 90 90 86 84 94 99 99 100 100 100 98 98 95 86 81 71 80 94 97 100 97 86 82 82 80 86
86 88 87 82 84 90 98 100 100 100 99 100 99 96 87 76 66 80 96 97 100 99 86 88 89 88 98
85 83 85 88 90 92 97 98 98 99 99 100 98 93 84 72 58 71 94 100 99 100 100 100 83 72 74
85 91 93 98 98 94 100 99 98 98 97 95 91 84 78 70 51 48 83 98 100 100 99 100 100 99 86
82 85 86 96 99 100 100 99 98 94 95 93 85 75 70 66 50 29 62 87 99 100 100 99 98 100 100
86 89 94 98 100 100 100 100 98 92 86 84 76 69 68 66 54 34 28 72 84 96 99 100 97 86 95
85 93 99 100 100 99 100 100 98 93 86 75 73 70 68 60 52 44 33 33 72 76 90 95 98 99 100
68 70 78 82 92 100 100 100 97 91 86 75 70 69 65 58 54 59 53 43 43 62 81 84 89 89 93
59 61 63 79 98 100 100 99 93 86 81 73 70 70 51 61 65 69 69 92 76 67 74 76 77 78 85
63 68 71 72 90 100 98 98 97 91 80 73 74 74 66 82 68 74 84 88 98 96 96 84 72 66 65
65 68 73 72 71 71 80 87 98 97 84 83 63 63 64 76 65 67 85 87 85 87 81 85 90 85 83
67 69 74 77 77 72 59 59 66 71 94 88 66 61 64 62 74 70 67 75 77 72 71 83 80 88 89
67 66 69 72 71 66 57 55 56 56 58 60 62 61 59 63 72 68 52 59 55 74 75 73 78 75 74
78 75 75 77 70 61 67 67 69 67 60 60 65 63 62 63 62 51 52 57 51 53 57 61 61 67 67
84 80 78 79 77 73 80 79 72 65 71 74 68 64 57 43 43 48 50 50 53 61 64 63 50 44 51
76 75 82 85 87 83 84 88 80 72 74 91 91 84 78 83 46 48 51 44 45 52 63 68 62 45 45
Wind_Speed
5 6 6 8 10 11 9 10 10 9 9 8 9 10 14 18 21 18 18 24 23 20 11 10 13 21 23
5 5 5 7 12 11 11 10 11 8 6 6 9 11 13 14 18 16 15 22 19 16 6 6 11 17 22
4 5 6 10 10 11 12 12 11 9 7 6 9 10 13 13 14 13 14 19 23 10 4 7 14 14 15
5 5 6 9 10 12 14 13 12 11 11 10 10 11 10 11 12 12 9 13 18 21 24 24 22 18 18
4 3 5 9 10 9 10 10 12 12 11 11 10 10 9 8 9 8 8 8 11 16 20 19 23 22 18
6 7 11 11 11 11 11 5 3 4 6 11 8 9 8 8 8 6 5 4 4 9 12 13 19 22 26
10 10 10 10 10 9 10 8 6 5 4 7 7 8 8 8 8 4 3 2 2 2 5 8 11 12 10
8 11 12 11 10 8 7 8 9 8 6 4 5 7 7 7 5 3 1 3 3 2 3 4 7 12 16
5 7 9 10 10 10 8 6 4 5 8 5 4 5 7 7 4 2 1 2 3 4 4 5 7 9 12
6 5 5 5 7 7 6 7 5 3 5 6 3 3 3 3 4 3 3 4 3 6 5 6 8 10 12
6 5 5 3 5 7 6 7 9 7 3 5 2 4 4 3 3 6 6 6 7 7 8 6 8 9 10
8 7 7 5 4 5 6 8 11 12 9 8 4 5 4 2 3 6 10 10 9 9 7 8 8 8 11
9 7 7 7 6 6 6 6 7 7 11 12 10 9 9 5 2 2 5 13 14 12 10 12 11 12 12
7 7 8 7 7 7 6 5 4 6 7 8 8 9 9 10 10 9 7 3 5 14 14 14 14 15 15
9 9 8 7 8 8 6 6 7 3 4 7 8 9 11 12 11 15 15 14 11 8 10 15 17 18 18
11 11 11 10 9 9 9 8 10 9 8 5 6 7 8 10 16 20 15 14 13 12 12 13 17 14 17
12 11 11 11 10 12 11 10 12 11 10 8 8 8 2 2 5 6 11 12 12 13 15 16 18 14 9
Wind_Direction
210 225 258 283 302 305 304 285 266 263 276 285 298 307 324 331 344 327 335 344 324 311 278 257 217 207 211
221 238 250 296 304 293 275 269 261 262 280 284 284 303 320 338 340 332 347 357 7 317 272 224 201 199 199
227 248 280 294 286 292 281 268 262 258 248 242 282 309 325 333 340 338 349 7 26 50 181 164 159 157 165
234 254 267 276 281 283 278 275 270 262 254 257 277 291 313 332 337 345 355 15 25 60 106 128 132 123 117
227 227 267 281 275 280 272 282 284 272 266 264 268 276 299 328 335 344 355 17 36 57 80 103 130 138 136
236 249 262 260 269 263 263 267 286 273 262 268 260 268 285 315 323 331 345 357 33 70 84 96 106 103 123
230 242 246 252 253 249 243 244 252 283 262 274 246 260 288 303 306 312 312 315 351 98 126 130 135 141 139
249 244 240 245 254 257 254 247 249 260 238 261 256 264 288 295 293 302 271 249 231 163 162 147 138 135 150
244 257 258 255 251 244 233 206 242 252 232 239 263 282 292 282 259 244 192 197 205 189 188 172 164 164 169
237 239 253 236 226 228 225 217 216 238 225 215 257 283 323 287 230 213 187 163 187 180 196 189 178 174 176
217 221 228 247 226 222 240 236 239 255 265 218 276 236 244 304 255 211 193 190 186 188 184 188 196 199 194
218 216 227 237 252 261 241 238 240 243 248 254 246 226 228 286 272 219 215 215 215 221 214 201 198 200 203
222 227 234 240 255 271 256 242 247 241 228 239 246 252 239 232 286 255 226 237 233 234 237 231 225 219 214
226 222 229 233 251 255 250 242 239 240 235 235 242 245 247 249 255 264 261 249 240 238 238 238 235 234 235
221 228 233 243 250 241 236 232 231 264 261 246 244 251 253 254 257 258 258 255 256 261 242 247 245 243 244
233 242 238 247 251 239 241 245 248 249 259 276 271 272 288 273 254 257 257 261 262 261 256 256 264 253 253
237 240 242 249 241 243 248 251 256 257 254 259 256 244 190 267 309 282 256 265 261 253 254 254 266 269 275